Preview of NWS' New Version of Forecast
This preview is not operational and should not be used for support decisions.

Regional Weather Roundup (RWR)

Issued by National Weather Service (NWS)

                            
000
ASUS44 KJAN 181810
RWRMS 

MISSISSIPPI HOURLY WEATHER ROUNDUP
NATIONAL WEATHER SERVICE JACKSON MS
100 PM CDT THU APR 18 2019

NOTE: "FAIR: INDICATES FEW OR NO CLOUDS BELOW 12,000 FEET WITH NO
SIGNIFICANT WEATHER AND/OR OBSTRUCTIONS TO VISIBILITY.

MSZ001>002-007>008-010>013-018>021-025>028-034>036-181900-
NORTHWEST MISSISSIPPI
  
CITY           SKY/WX    TMP DP  RH WIND       PRES   REMARKS
BATESVILLE     LGT RAIN  64  63  94 W6        29.76F                  
CLARKSDALE     MOSUNNY   64  64 100 CALM      29.77F FOG              
CLEVELAND      CLOUDY    62  62 100 N10       29.75F                  
GREENWOOD      LGT RAIN  65  63  93 N6        29.73F                  
6HR MIN TEMP:  64; 6HR MAX TEMP:  72; 6HR PCP:  0.24;                

GREENVILLE     CLOUDY    64  59  83 NE13      29.72F                  
6HR MIN TEMP:  63; 6HR MAX TEMP:  67; 6HR PCP:  0.40;                

OLIVE BRANCH   CLOUDY    66  66 100 S5        29.75F                  
OXFORD         LGT RAIN  66  61  82 CALM      29.76F                  
TUNICA         LGT RAIN  63  61  94 S9        29.76F                  
WINONA         CLOUDY    72  64  77 W9        29.72F                  
$$

MSZ003>006-009-014>017-022>024-029>033-037>039-181900-
NORTHEAST MISSISSIPPI
  
CITY           SKY/WX    TMP DP  RH WIND       PRES   REMARKS
ABERDEEN       MOCLDY    75  72  88 S15G25    29.76F                  
COLUMBUS AFB   NOT AVBL                                               
CORINTH        CLOUDY    73  63  68 S8G17     29.75F                  
GOLDN TRIANGLE FAIR      77  66  68 S18G26    29.76F                  
STARKVILLE     MOCLDY    77  64  65 S15G24    29.75F                  
TUPELO         CLOUDY    72  63  73 CALM      29.74F                  
6HR MIN TEMP:  63; 6HR MAX TEMP:  74; 6HR PCP:  0.01;                

$$

MSZ040-058-181900-
CENTRAL MISSISSIPPI
  
CITY           SKY/WX    TMP DP  RH WIND       PRES   REMARKS
JACKSON INTL   PTSUNNY   76  63  64 SE14      29.71F THUNDER          
6HR MIN TEMP:  62; 6HR MAX TEMP:  78;                                

JACKSON HAWKNS CLOUDY    74  65  73 SE10      29.70F                  
6HR MIN TEMP:  62; 6HR MAX TEMP:  77;                                

MADISON        FAIR      73  64  73 S7        29.71F                  
MERIDIAN KEY   FAIR      82  62  50 S13       29.76F                  
6HR MIN TEMP:  67; 6HR MAX TEMP:  82;                                

MERIDIAN NAS   CLOUDY    81  64  56 S12G18    29.78F                  
6HR MIN TEMP:  67; 6HR MAX TEMP:  82;                                

RAYMOND        FAIR      73  70  88 SE7G15    29.68F                  
VICKSBURG VKS  CLOUDY    64  64 100 N14G20    29.65F FOG              
$$

MSZ059>079-181900-
SOUTH MISSISSIPPI
  
CITY           SKY/WX    TMP DP  RH WIND       PRES   REMARKS
HATTIESBURG    CLOUDY    77  65  66 SE15G22   29.76F                  
6HR MIN TEMP:  65; 6HR MAX TEMP:  79;                                

LAUREL         CLOUDY    78  65  65 S14       29.76F                  
MCCOMB         TSTM      71  67  87 SE12G22   29.68F FOG              
6HR MIN TEMP:  65; 6HR MAX TEMP:  76; 6HR PCP:  0.07;                

NATCHEZ        HVY RAIN  64  63  94 NW23G59   29.74R VSB 1            
6HR MIN TEMP:  67; 6HR MAX TEMP:  76; 6HR PCP:  0.57;                

PINE BELT      CLOUDY    76  66  71 SE14      29.76F                  
6HR MIN TEMP:  65; 6HR MAX TEMP:  79;                                

$$

MSZ080>082-181900-
COASTAL MISSISSIPPI
  
CITY           SKY/WX    TMP DP  RH WIND       PRES   REMARKS
BAY ST LOUIS   CLOUDY    77  70  78 SE16G24   29.76                   
BILOXI         PTSUNNY   79  68  69 SE16G25   29.78F                  
6HR MIN TEMP:  72; 6HR MAX TEMP:  79;                                

PASCAGOULA     CLOUDY    80  65  59 SE17G26   29.82F                  
6HR MIN TEMP:  69; 6HR MAX TEMP:  82;                                

GULFPORT       FAIR      79  69  71 SE23      29.77F                  
6HR MIN TEMP:  72; 6HR MAX TEMP:  79;                                

$$

LAZ007>009-015>016-023>026-181900-
NORTHEAST LOUISIANA
  
CITY           SKY/WX    TMP DP  RH WIND       PRES   REMARKS
BASTROP        HVY RAIN  62  61  98 CALM      29.80R                  
TALLULAH/VBURG TSTM      63  61  93 N13G21    29.68F FOG              
6HR MIN TEMP:  63; 6HR MAX TEMP:  70; 6HR PCP:  0.09;                

VIDALIA        TSTM      62  61  95 NW24G35   29.70R VSB 3/4          
$$